Theta_e
318 318 318 317 316 314 314 313 312 311 310 325 323 329 317 314 311 319 323 322 319 313 308 308 309 306 306 308 308 309 308 307 306 307 307 307 308 308 306 306 305 305 306 305 304 305 302 303 302 303 304 304 307 308 309 310 310 309 308 308 311 312 305 302 303 308 309 310 312 312 311 310 309 310 310 307 304 306 305 304 306 304 306 303 304 302 311
318 318 318 317 316 314 314 312 312 312 310 316 322 324 318 316 314 315 319 322 320 311 305 304 306 305 306 307 305 306 307 307 307 307 307 307 307 306 306 307 308 305 307 307 303 306 300 304 304 303 306 304 309 309 309 309 308 308 308 306 309 303 307 304 300 300 302 305 307 307 311 310 307 307 310 309 309 308 308 308 309 303 305 306 303 299 312
317 318 318 317 316 315 313 312 312 312 311 313 321 320 321 315 314 314 316 319 317 307 310 307 306 305 306 306 304 306 306 307 307 308 306 309 308 307 305 307 307 307 308 305 306 306 304 301 305 305 305 305 309 309 309 310 309 310 314 318 313 306 306 304 297 295 293 293 295 298 301 304 307 309 309 309 308 308 307 303 305 298 306 308 304 304 321
317 318 318 317 316 315 313 312 312 312 311 309 323 326 319 310 307 310 312 315 313 312 313 310 308 305 305 304 303 305 304 306 308 309 307 308 309 309 308 308 309 306 305 304 303 304 306 303 302 304 304 306 307 308 309 308 309 313 316 315 313 306 307 307 305 302 299 301 304 307 308 307 302 305 307 308 308 309 310 309 305 301 306 305 309 311 313
318 318 318 317 317 315 314 312 312 312 311 309 319 325 319 317 309 309 306 310 312 310 310 308 307 306 307 305 304 303 303 304 306 307 305 307 308 308 307 306 304 304 304 303 302 304 303 306 305 303 303 306 306 308 309 309 310 318 316 316 310 308 304 306 307 306 306 306 306 307 308 306 306 305 305 307 309 309 307 305 304 312 306 301 310 314 310
318 319 319 318 316 315 314 312 312 311 311 309 323 324 319 307 313 313 314 306 303 305 305 308 307 306 306 305 305 303 304 304 304 306 307 308 309 305 306 307 306 306 306 304 302 303 303 304 302 304 305 304 306 306 308 308 312 314 310 312 309 306 302 305 305 305 306 307 307 308 308 307 308 307 308 307 308 308 307 306 308 309 305 303 313 316 311
319 319 319 319 316 315 314 313 312 311 309 312 328 325 317 316 315 313 314 309 310 310 308 308 307 306 307 306 305 303 303 303 303 303 304 305 306 307 304 304 305 307 307 306 306 306 301 301 305 307 305 304 305 303 305 308 310 309 309 310 313 308 303 306 306 304 305 306 307 308 307 307 307 307 308 309 309 309 308 308 308 308 310 311 312 314 315
318 319 319 319 317 316 315 312 312 311 308 322 331 324 319 311 314 309 311 312 311 310 308 308 307 306 306 305 304 304 303 303 304 305 303 304 303 307 304 304 305 307 307 308 306 306 307 307 305 306 306 304 306 304 304 304 308 309 306 308 312 306 302 305 306 304 304 305 307 307 307 307 306 307 309 309 309 309 310 310 311 312 312 312 311 315 319
318 318 319 319 318 315 315 313 312 310 309 329 325 322 325 326 328 326 318 308 310 310 309 306 307 306 307 306 304 305 304 303 304 305 307 306 305 306 305 306 306 307 308 307 306 308 308 308 307 307 307 304 306 305 306 307 304 306 306 307 308 306 304 306 305 301 301 304 304 305 306 306 305 305 307 310 308 307 310 310 315 313 309 311 311 313 316
318 318 319 319 318 316 315 313 312 310 310 329 329 322 326 330 327 327 319 310 312 307 309 309 305 303 308 307 305 305 305 305 306 305 306 307 308 308 307 307 307 306 306 306 307 309 309 309 310 311 310 310 310 310 309 308 306 305 305 308 305 306 305 303 302 299 298 303 304 303 304 303 301 302 306 310 311 313 315 316 316 316 317 313 309 315 325
318 318 319 318 319 318 317 314 313 310 318 325 327 324 322 321 324 326 319 308 310 309 308 307 305 308 308 306 307 306 306 306 306 303 305 307 306 308 308 307 307 307 306 308 311 312 312 312 312 312 311 310 309 310 310 309 309 308 306 305 306 307 305 303 305 298 299 302 303 304 301 295 296 307 310 310 309 310 312 313 317 318 318 318 319 323 329
318 318 319 318 318 318 317 315 313 310 311 323 327 328 325 328 329 329 318 306 307 310 308 306 308 308 306 307 307 306 305 306 306 307 306 306 307 307 308 308 309 307 310 314 313 312 313 313 312 313 311 310 310 309 309 308 309 311 309 306 305 305 305 302 305 301 299 304 303 298 293 295 306 310 312 312 311 312 312 314 317 317 320 320 319 324 325
318 318 318 319 319 319 317 316 314 312 310 317 325 326 329 331 327 328 323 312 307 309 305 307 310 307 308 307 307 308 307 307 307 308 308 307 306 308 307 309 307 310 314 312 311 311 307 307 307 308 307 308 308 308 308 307 307 308 309 310 306 304 303 304 303 302 302 300 299 290 294 304 307 308 311 313 313 313 311 312 315 318 319 321 323 324 326
317 318 318 319 319 319 318 316 314 313 310 312 321 326 331 329 322 325 323 314 309 311 310 309 308 307 307 307 308 307 307 307 309 309 307 307 307 306 307 308 311 313 313 314 311 310 306 306 302 303 303 304 305 304 307 307 307 306 306 308 308 306 305 304 299 304 296 298 297 296 306 304 305 305 308 310 308 309 309 306 311 319 320 320 322 326 327
317 318 318 319 319 319 319 317 315 314 313 309 320 327 332 330 326 324 327 323 310 310 312 304 307 308 308 308 308 306 306 308 306 307 310 309 308 308 310 310 311 312 313 311 308 309 305 305 300 299 302 299 295 300 306 304 308 307 306 307 310 310 304 307 301 301 302 297 295 296 296 295 301 308 311 313 313 312 314 313 310 318 321 323 321 322 327
317 317 318 319 319 319 319 318 316 313 312 309 321 323 330 335 330 329 326 323 319 306 309 311 312 309 309 308 309 308 307 307 309 308 308 311 309 310 310 312 312 311 311 308 311 308 306 301 298 297 296 300 302 300 300 304 302 306 306 306 307 308 309 307 303 299 300 299 295 294 293 296 306 309 310 312 313 311 315 308 304 311 319 321 323 322 326
316 317 318 318 318 319 319 318 316 313 313 309 317 320 327 339 328 324 323 325 318 309 315 314 313 312 310 309 309 308 310 308 309 305 307 308 311 311 311 312 312 311 310 308 307 305 303 302 302 301 302 304 297 295 302 300 299 302 305 307 305 304 305 304 300 299 299 298 295 293 302 300 308 312 311 312 313 312 309 296 297 309 316 320 321 322 323
316 317 318 318 318 318 319 318 316 314 312 311 315 320 324 335 334 330 327 324 317 312 315 316 312 309 309 312 309 312 312 310 310 311 310 311 311 310 311 309 307 308 312 306 309 302 302 301 298 297 296 306 306 301 291 298 296 301 300 301 302 303 303 303 298 299 298 299 297 299 304 310 312 312 313 314 314 310 299 293 302 315 317 320 324 325 326
316 317 317 318 318 318 318 318 315 313 313 309 316 323 329 333 332 329 325 321 317 311 316 317 317 316 317 317 315 312 313 313 314 308 309 306 310 312 313 311 313 305 307 307 307 304 302 302 305 302 299 303 303 294 304 295 297 304 302 301 301 302 301 301 302 299 298 299 296 295 304 309 314 315 313 316 310 298 295 310 319 318 317 320 320 325 326
316 316 317 317 317 318 318 317 314 313 313 310 313 320 322 326 332 329 321 318 321 315 316 316 315 313 316 313 312 309 311 309 312 309 309 307 315 312 309 306 308 312 308 310 303 307 304 302 301 303 301 303 303 307 299 301 305 302 304 303 300 302 299 299 298 303 302 301 297 294 290 308 315 315 314 316 308 308 315 319 320 320 321 320 321 323 325
316 316 317 317 317 317 318 317 314 313 313 312 310 320 323 334 331 334 329 324 319 317 313 319 318 318 316 314 317 317 313 313 311 309 313 313 318 312 301 306 308 307 307 305 303 303 303 304 304 302 307 306 305 303 297 301 303 308 306 305 303 307 298 301 301 303 296 298 294 295 304 311 316 315 308 311 314 318 320 320 317 321 323 321 324 325 325
315 316 316 317 317 317 318 317 315 313 312 312 310 320 323 331 333 334 331 328 319 319 319 321 321 320 321 323 323 323 320 317 316 316 313 313 315 310 314 315 313 311 315 313 309 306 306 307 309 304 301 302 306 301 307 299 297 305 309 306 298 310 305 308 301 307 304 303 305 310 313 314 315 317 316 317 318 321 321 321 320 320 319 323 323 324 324
315 316 316 316 317 317 318 317 315 313 312 312 313 323 322 324 326 330 330 322 328 325 324 322 321 319 321 322 325 325 323 322 319 318 316 312 312 311 310 312 312 315 315 314 312 309 310 307 305 310 307 308 306 305 304 301 302 305 303 307 306 310 311 313 308 306 310 311 312 314 314 314 315 316 318 317 318 320 321 320 319 323 325 325 321 325 327
315 315 316 316 316 317 317 316 315 313 312 312 312 318 322 325 325 327 326 323 319 315 317 319 317 312 313 314 319 321 321 320 321 321 321 317 308 312 313 314 319 314 315 320 320 313 312 310 312 309 304 310 307 302 298 300 303 308 306 304 307 310 309 308 306 309 300 300 311 312 312 314 315 315 317 320 320 320 321 321 322 324 325 325 326 326 325
315 315 315 316 316 317 317 315 314 313 312 311 313 318 321 324 331 328 321 317 314 312 307 311 312 317 319 322 322 320 320 323 322 322 319 319 316 311 312 318 319 316 317 318 321 315 312 307 308 304 301 312 308 301 309 303 305 309 302 307 307 306 313 306 307 308 304 308 311 313 313 315 316 316 317 317 319 320 322 323 325 325 325 325 325 326 325
314 315 315 316 316 316 316 315 313 312 312 312 311 317 323 326 330 330 327 327 321 317 310 307 311 319 322 319 317 319 322 321 320 319 319 319 317 318 318 320 319 322 321 318 316 312 311 310 310 310 306 309 314 304 306 311 308 312 306 308 310 309 312 303 311 305 309 313 312 313 315 315 317 317 318 319 319 319 321 322 323 323 324 324 324 326 326
314 314 315 315 315 316 316 314 313 312 312 311 314 320 323 327 330 326 325 325 319 310 310 307 312 317 319 315 319 322 321 320 319 319 319 318 318 319 318 320 319 316 315 314 315 314 313 310 309 307 309 311 312 310 311 308 307 305 304 309 312 308 304 309 308 303 302 307 309 312 306 308 314 316 318 319 320 320 319 320 320 322 322 323 323 322 324
314 314 314 315 315 316 315 314 313 312 312 311 314 320 325 326 330 331 328 328 324 314 308 306 309 315 320 316 320 320 320 319 319 319 319 318 319 319 318 317 319 314 314 313 310 307 308 305 305 312 313 313 306 305 310 311 312 308 305 310 313 307 311 310 305 306 306 311 313 315 313 314 317 318 319 320 321 321 319 319 319 320 321 322 322 322 323
314 314 314 314 315 315 314 314 313 312 312 310 316 321 325 328 330 327 327 330 330 322 320 318 319 315 308 312 320 318 320 319 318 318 318 318 318 319 319 318 317 317 318 315 315 315 310 311 315 311 311 317 307 307 310 304 303 302 307 314 313 317 315 313 313 313 312 314 314 314 314 313 315 318 319 320 322 321 320 321 321 321 322 322 322 322 321
314 314 314 314 314 314 314 314 313 312 312 315 319 319 316 319 327 329 327 330 328 326 314 310 306 310 317 318 316 317 317 318 317 318 318 317 317 319 320 319 319 318 318 316 314 309 312 312 314 316 318 320 310 312 307 306 305 308 314 316 317 316 316 317 317 312 314 318 318 318 318 318 319 319 319 320 321 322 320 319 320 320 321 321 321 321 322
313 313 314 314 314 314 314 313 313 311 311 317 319 315 310 309 322 328 320 328 330 323 318 315 309 314 312 318 319 316 316 316 316 316 316 317 319 320 321 321 321 318 314 315 312 316 316 310 312 315 317 316 315 310 307 307 305 307 312 315 316 315 315 316 318 318 320 320 320 319 319 319 320 320 319 320 321 321 321 321 320 319 320 321 321 322 321
313 313 313 314 314 314 314 313 312 312 314 315 317 316 317 318 324 323 320 321 327 321 314 308 307 308 308 313 316 319 318 317 315 316 317 318 317 319 321 318 320 320 319 317 319 315 312 318 315 317 315 315 313 309 309 307 304 305 313 315 316 317 318 318 318 318 318 320 318 315 315 317 318 316 316 319 318 318 320 319 320 321 320 321 322 322 322
313 313 313 314 314 314 314 312 312 312 316 316 312 311 312 312 312 315 319 325 324 322 318 311 305 308 306 311 316 317 318 316 314 316 315 319 318 319 317 320 320 319 319 315 312 309 318 315 316 312 317 320 312 310 308 306 309 313 314 316 316 317 317 318 318 318 318 319 318 314 313 314 317 318 319 319 319 318 319 318 318 320 320 320 320 320 320
313 313 313 313 314 314 313 312 312 311 311 313 312 312 321 314 316 308 325 328 326 322 320 312 307 305 307 316 309 315 317 312 313 314 312 320 323 318 317 316 318 314 318 310 317 315 317 315 313 314 317 314 315 310 306 311 313 314 315 315 317 317 317 317 317 317 318 318 319 318 318 319 320 321 319 318 318 318 318 317 316 316 316 315 318 318 316
313 312 313 314 314 314 313 311 314 314 315 313 315 325 320 310 314 316 321 328 315 310 310 310 312 305 306 309 305 312 317 313 311 313 310 317 322 316 318 312 315 308 314 319 315 314 313 314 318 312 309 315 312 307 308 311 314 313 314 314 316 316 316 314 315 317 317 318 318 318 319 319 317 316 316 317 317 318 316 316 316 313 312 314 314 315 315
313 313 314 314 313 312 314 314 313 316 315 315 317 321 317 316 315 328 330 331 324 313 306 306 307 304 306 302 302 314 318 311 316 317 317 320 316 319 318 315 309 313 324 315 310 314 311 318 313 305 311 308 307 308 311 313 313 315 314 314 316 316 315 315 315 316 317 318 318 318 318 317 315 315 316 316 317 317 316 313 312 313 312 312 314 315 315
313 314 314 313 314 315 312 316 318 318 317 322 319 319 317 323 329 331 328 321 326 322 312 309 304 304 307 307 312 317 314 305 315 314 316 313 312 318 315 312 308 315 313 311 311 309 314 321 312 308 309 306 309 314 315 316 315 315 315 316 317 317 317 317 317 317 317 317 317 316 316 315 315 315 315 315 315 315 314 312 312 312 311 312 313 313 314
313 312 314 314 315 311 310 314 316 323 318 317 320 319 319 319 314 315 315 312 317 316 312 310 307 309 312 307 306 317 313 311 316 311 313 316 311 312 316 312 311 311 303 307 311 319 318 314 311 307 308 313 316 316 316 317 317 318 318 317 317 318 318 318 318 316 314 312 313 313 314 314 313 314 313 313 314 314 314 314 315 314 312 311 311 312 313
310 313 313 313 313 310 309 318 322 318 321 321 323 316 313 315 312 308 309 310 313 307 310 307 305 309 309 307 312 319 314 311 310 312 307 315 310 308 314 305 312 310 303 306 312 318 307 309 308 307 305 311 311 315 318 318 319 319 319 319 318 318 319 318 319 317 314 313 313 314 314 312 312 312 314 314 314 314 314 314 314 314 314 314 314 314 313
311 309 310 310 310 314 320 320 319 321 321 314 316 313 306 311 305 300 311 303 303 309 309 303 309 309 311 308 307 310 317 314 309 308 308 312 316 307 312 309 313 308 299 302 307 314 305 303 308 306 305 310 310 316 318 318 318 318 319 319 318 319 319 319 319 319 317 316 317 317 316 316 316 315 314 314 313 313 313 313 314 314 314 314 314 313 313
311 312 312 310 317 319 320 322 323 321 314 310 310 309 307 300 308 309 307 303 302 303 311 308 308 306 310 312 310 307 317 320 320 320 315 309 317 314 309 305 315 305 302 302 311 311 308 304 304 301 305 309 313 316 318 317 317 318 319 320 319 319 319 319 318 320 319 318 319 318 318 317 317 317 315 314 314 314 313 313 313 313 314 314 314 314 314
314 314 316 317 321 321 322 319 317 313 312 314 304 298 302 304 307 306 307 300 301 306 309 309 304 305 305 310 310 315 316 320 318 314 312 308 313 308 306 307 310 303 297 308 313 308 306 296 298 300 307 314 318 318 317 316 317 317 319 321 321 322 320 319 319 320 320 319 318 318 318 318 317 316 316 315 314 314 314 313 313 314 314 314 314 314 313
310 312 316 317 316 315 317 306 312 311 297 296 296 293 301 295 302 301 303 307 311 309 311 315 312 314 314 314 311 317 317 321 313 312 310 309 315 311 306 301 304 296 304 312 307 303 299 295 295 303 310 315 317 316 317 317 318 318 320 322 323 324 322 320 320 319 320 319 318 317 317 316 316 316 315 315 314 313 314 314 313 313 314 313 313 312 312
315 315 314 314 310 312 311 293 311 304 297 299 295 290 298 298 301 303 301 304 307 306 314 307 309 309 304 309 309 312 316 316 315 316 311 315 310 308 305 297 302 309 311 304 303 297 299 304 305 307 313 315 314 316 317 318 319 320 321 323 323 322 321 321 320 319 317 317 316 315 315 315 315 314 314 314 313 313 312 313 314 313 312 312 311 311 311
310 309 309 304 300 306 299 290 309 300 292 297 300 300 300 298 300 302 301 310 309 305 312 312 312 310 307 311 313 314 311 309 315 310 306 311 307 307 302 301 307 309 303 299 300 302 302 301 308 310 314 314 313 317 318 320 321 321 321 321 320 320 320 319 318 316 316 315 314 313 312 313 313 313 313 313 314 314 313 312 312 311 311 311 310 311 311
308 303 300 294 289 296 296 293 296 294 303 305 303 304 303 304 304 305 311 313 310 313 310 313 312 311 309 311 307 307 311 314 308 308 311 311 304 300 308 312 309 303 301 300 295 294 298 304 306 308 313 315 317 318 320 321 321 322 320 318 318 319 319 318 316 315 314 313 313 313 313 313 312 312 312 312 313 312 312 312 312 311 311 311 310 310 311
309 311 305 300 295 298 306 295 298 303 305 305 307 307 306 306 307 310 315 314 313 315 316 317 315 314 311 309 311 312 313 314 309 311 311 306 303 306 311 304 298 300 295 293 296 299 302 305 307 313 313 317 319 319 320 321 320 319 318 319 318 317 318 317 316 314 313 313 313 311 311 311 311 312 311 311 311 311 311 311 311 312 311 310 310 311 311
298 306 307 293 292 299 298 303 308 307 308 308 308 309 310 311 310 309 313 315 316 316 316 316 314 315 314 316 317 309 310 312 308 309 310 307 308 303 296 300 299 302 302 299 299 304 304 307 311 313 317 319 320 319 319 318 318 317 318 317 317 317 316 314 313 313 313 311 311 311 311 312 312 312 311 310 310 310 310 311 311 311 310 310 310 310 309
311 302 298 296 303 304 304 307 305 303 305 307 308 308 309 308 307 308 313 317 316 317 318 315 312 313 306 311 309 307 305 312 300 301 308 305 301 295 296 293 298 296 304 305 304 306 308 314 316 319 317 318 319 319 318 318 317 317 316 316 315 315 314 312 312 313 311 311 312 311 311 311 311 310 310 310 308 308 310 310 310 310 310 309 308 308 309
301 301 307 302 304 304 306 307 305 302 304 306 307 306 308 307 306 310 316 316 318 315 314 314 316 310 310 308 300 305 304 308 307 303 304 301 302 303 302 298 300 300 303 307 307 308 312 314 317 315 317 318 318 318 317 316 317 317 316 315 314 313 312 312 312 312 311 312 312 312 311 311 310 309 308 307 308 309 309 308 308 308 308 309 309 308 308
310 305 304 310 305 305 305 300 300 302 302 304 304 305 307 307 307 310 316 316 318 315 313 308 309 307 302 300 298 295 300 311 306 304 303 302 305 304 302 300 303 307 309 310 310 310 313 315 315 316 317 318 317 317 317 317 316 315 314 313 312 311 311 312 311 311 312 311 311 307 309 309 309 308 309 309 308 307 307 308 309 309 309 309 309 308 308
300 298 302 307 309 309 309 306 307 305 305 305 306 309 310 309 311 314 319 315 313 307 306 311 310 304 297 297 303 306 311 305 303 306 303 306 309 305 305 306 308 309 310 309 310 311 312 314 316 318 318 317 316 317 317 316 314 314 313 312 311 311 311 311 311 311 311 310 310 309 309 309 308 308 308 307 307 307 306 306 307 308 308 308 308 308 308
Wind_Speed
18 19 19 20 21 21 21 21 21 22 25 10 8 8 6 9 3 4 2 2 7 8 5 0 2 4 5 6 5 5 5 7 3 5 4 2 3 1 3 5 5 2 7 2 2 3 1 1 2 1 9 5 7 4 4 2 6 7 3 4 3 3 7 7 9 9 6 5 3 6 8 6 11 10 12 13 14 11 9 10 8 10 9 9 6 7 4
18 19 19 19 20 21 21 20 20 19 17 8 9 6 9 3 2 8 4 6 7 7 5 3 5 4 3 2 4 2 7 7 5 6 5 7 2 3 3 4 4 4 3 5 2 3 2 3 4 3 2 7 3 4 3 5 5 6 7 8 7 8 4 8 8 6 7 7 8 7 9 9 8 10 9 11 13 16 14 12 7 11 12 11 7 11 5
18 18 19 19 20 21 22 21 19 18 15 10 5 6 8 2 1 4 6 6 6 8 4 3 3 4 2 1 4 6 7 4 4 8 7 4 5 3 3 4 2 1 4 1 4 2 6 5 4 3 2 6 1 4 5 5 4 2 9 9 7 6 3 6 7 10 10 10 10 8 11 12 10 10 10 18 17 12 9 10 11 11 8 12 10 1 7
18 18 19 20 20 22 22 22 20 18 16 13 5 7 7 5 6 5 4 4 5 1 2 8 2 4 5 5 3 5 4 8 3 9 6 7 1 4 2 2 4 2 4 2 5 3 3 5 4 3 3 5 3 4 1 1 5 7 5 6 7 5 5 6 7 8 7 5 9 8 10 8 13 16 19 7 6 10 9 7 9 8 5 10 9 6 8
18 18 19 19 20 21 22 22 22 20 15 11 4 6 6 5 9 2 4 3 3 3 4 5 5 2 1 1 2 2 3 3 6 4 4 3 7 1 4 2 4 2 3 3 1 4 3 3 5 4 5 2 2 2 7 4 5 3 5 7 6 5 7 5 7 10 8 2 6 10 10 12 13 16 14 10 9 11 14 10 9 6 7 11 7 8 7
17 18 19 19 19 21 22 23 24 23 19 12 4 6 6 7 2 2 5 6 3 6 5 3 3 2 7 4 3 4 1 2 3 6 4 5 2 5 1 1 2 2 4 1 3 3 1 2 2 3 2 5 4 6 5 3 6 10 7 7 4 6 7 5 9 7 11 12 8 9 8 8 5 6 5 10 13 14 14 13 14 11 8 7 9 11 7
17 18 19 19 18 20 22 24 25 25 25 13 4 5 2 3 2 2 2 5 4 7 8 6 4 3 6 4 5 3 4 4 3 6 4 1 1 2 1 2 2 1 3 4 3 4 2 5 0 5 2 5 1 5 4 5 7 4 3 1 4 5 7 6 8 6 8 6 9 9 9 5 7 8 6 8 9 11 11 13 18 14 5 11 9 8 6
17 17 18 18 18 19 21 23 25 26 28 14 6 3 6 2 5 2 7 5 2 2 5 4 5 4 2 5 2 5 2 2 2 4 6 2 2 5 1 1 1 3 1 2 1 4 4 5 1 3 7 2 4 2 2 6 6 7 4 5 5 6 2 3 7 8 9 9 3 5 8 8 4 6 8 8 10 9 9 9 9 8 10 8 13 4 7
16 17 17 18 17 17 19 21 23 27 24 5 5 2 5 6 4 4 4 7 4 2 3 4 5 2 5 5 5 5 2 2 3 5 3 6 4 3 4 3 2 2 3 3 4 2 1 2 3 1 3 4 3 5 3 4 6 5 4 5 3 5 3 4 7 7 6 7 8 7 6 8 9 1 1 4 5 9 4 8 4 6 8 10 12 5 3
16 16 16 17 17 15 18 19 22 25 26 6 7 5 8 7 2 4 4 5 5 8 4 4 4 4 5 6 5 4 5 3 5 4 1 1 2 3 5 2 7 4 2 4 5 4 1 2 3 4 1 3 0 1 2 2 5 3 4 4 6 3 5 6 6 8 7 4 5 4 9 9 8 6 2 5 4 6 2 2 2 4 6 6 9 1 4
16 16 15 16 16 15 16 18 19 21 15 9 7 7 8 8 7 6 5 7 5 7 5 5 5 6 2 4 3 3 3 1 2 8 4 4 5 2 3 3 6 3 4 4 3 4 3 2 1 3 2 3 3 2 3 2 1 4 4 4 3 3 6 5 3 6 5 6 9 8 8 9 2 7 3 6 7 5 5 3 6 6 4 4 3 3 3
16 16 15 15 16 14 14 15 16 16 14 8 6 6 7 8 7 6 5 9 7 4 6 4 3 5 7 5 3 2 2 5 5 4 1 2 5 1 4 2 6 2 5 0 2 1 1 3 4 4 5 3 4 4 5 4 4 2 3 5 4 6 4 5 3 6 6 6 7 9 11 6 9 3 6 5 4 4 6 5 4 7 6 5 2 7 6
16 15 14 14 15 13 12 14 14 14 14 10 7 5 7 8 6 6 6 7 7 5 7 6 5 3 3 3 2 4 1 3 1 3 3 2 3 3 0 5 2 5 3 2 2 4 6 4 2 5 3 4 4 7 6 2 3 3 4 3 4 4 5 4 6 6 5 6 5 8 5 6 3 5 7 6 6 6 9 3 11 8 11 9 7 7 3
16 16 15 14 14 12 12 13 14 14 13 12 7 6 6 7 7 6 4 6 8 6 6 2 4 5 4 4 3 3 4 2 3 3 3 2 2 1 2 3 3 1 3 2 4 4 6 3 7 6 7 7 6 7 4 4 4 5 4 3 3 4 4 4 6 5 8 5 7 8 3 6 6 2 7 8 7 8 6 1 2 11 10 11 9 5 4
15 15 14 14 13 12 11 12 14 14 14 15 7 7 4 5 6 5 6 5 7 6 2 7 6 5 5 5 4 4 5 4 5 5 2 1 3 2 5 2 2 4 1 5 5 5 6 4 5 6 4 6 5 3 2 6 4 2 3 3 3 1 6 3 5 4 6 8 7 8 8 8 4 6 2 4 5 5 4 5 5 9 7 7 8 9 5
14 15 14 14 13 12 11 12 12 13 14 18 8 5 4 4 6 5 6 5 6 7 7 7 2 7 6 4 6 6 3 5 5 4 5 4 1 4 5 1 2 3 5 5 6 5 5 6 4 4 5 3 6 3 2 4 5 8 0 1 5 3 4 5 6 6 7 8 8 7 8 2 4 2 6 5 3 5 3 7 4 5 8 9 8 7 4
14 14 14 14 13 11 12 12 12 12 11 12 8 6 3 5 5 6 6 5 7 7 7 2 3 5 3 3 2 5 4 4 5 4 4 6 4 0 3 2 3 4 4 5 5 6 5 6 4 5 3 3 3 2 4 5 5 3 4 5 3 5 6 8 9 9 7 6 8 6 4 4 4 6 6 7 5 4 3 7 3 8 8 6 8 5 7
14 13 14 14 13 12 13 10 11 10 11 10 8 6 5 2 3 6 5 6 6 7 5 5 5 6 6 2 3 6 1 1 3 1 4 6 5 6 5 4 6 2 2 7 3 6 6 6 6 5 1 6 2 1 2 3 4 4 4 5 5 1 5 5 8 6 4 5 7 4 6 5 6 6 7 6 7 5 6 2 5 8 6 5 6 4 2
14 13 13 14 13 12 12 9 8 10 11 11 11 8 6 2 3 5 5 6 6 6 3 1 6 6 5 2 5 2 2 6 4 5 2 5 4 4 4 2 6 3 6 6 4 6 6 3 2 4 2 6 4 2 3 3 2 1 3 6 6 7 4 5 4 5 5 6 7 1 5 4 8 6 6 9 7 8 2 5 6 5 7 5 5 9 6
13 13 13 13 12 11 11 7 6 8 10 10 9 6 5 3 1 3 5 5 5 7 3 5 8 8 4 6 4 6 5 6 3 6 3 1 5 5 5 5 5 5 5 4 7 2 6 3 1 2 5 5 3 3 2 3 1 5 4 3 5 6 5 3 2 3 4 4 5 4 3 7 10 9 3 12 6 4 4 5 5 6 4 6 7 5 5
13 12 12 12 12 11 10 7 5 7 9 8 9 6 4 5 1 1 4 5 6 7 3 3 3 3 4 5 3 6 2 5 5 4 1 3 4 4 3 2 5 5 3 5 5 2 3 1 5 5 4 3 6 4 1 3 4 5 5 3 5 5 7 4 6 7 7 4 2 3 4 5 8 9 6 5 6 4 4 3 5 7 7 6 6 5 8
13 12 12 12 12 11 9 6 5 6 8 9 10 6 7 3 0 1 3 4 6 7 5 7 5 4 2 5 3 4 4 5 7 5 6 1 5 5 5 3 2 3 3 3 4 2 5 2 3 3 5 4 3 4 3 5 2 7 4 3 4 6 5 5 3 6 5 6 5 5 2 2 7 8 8 7 6 5 5 5 5 7 7 6 4 8 7
12 11 12 12 12 11 11 7 5 5 7 9 9 5 6 4 3 4 5 6 6 7 7 7 5 5 4 4 1 1 1 3 2 1 2 7 2 5 6 5 6 2 2 2 6 6 5 2 3 3 3 2 3 3 6 6 1 6 5 3 5 0 4 1 7 2 5 6 6 7 5 5 7 7 6 7 7 7 7 9 6 6 6 5 5 4 6
12 11 12 13 12 12 9 5 5 5 6 6 6 6 5 4 5 6 4 6 6 6 6 8 6 7 8 9 8 6 4 4 3 4 3 3 7 2 5 4 5 2 2 3 4 5 4 4 6 2 5 5 2 6 4 6 2 4 0 6 4 5 2 3 5 6 4 3 4 6 6 5 5 5 6 6 6 7 7 7 7 7 7 7 6 6 6
12 11 12 12 12 13 9 5 5 5 6 7 8 8 9 8 4 3 5 4 5 6 6 7 9 7 7 4 6 6 3 4 3 2 3 2 5 6 7 7 2 6 2 1 2 5 2 5 4 4 5 5 3 4 4 4 3 2 7 4 3 6 2 6 2 3 2 5 6 6 7 5 5 4 4 5 6 7 7 7 7 6 6 6 5 5 5
11 11 12 12 12 13 10 6 6 6 7 6 6 5 5 4 3 4 5 5 6 5 7 7 6 7 5 6 9 5 6 6 4 4 3 5 3 7 2 3 2 3 1 3 4 6 4 4 5 4 5 4 2 6 2 6 5 1 6 4 2 3 5 3 2 3 7 10 4 5 6 6 6 6 6 5 5 5 6 6 6 6 6 7 7 6 3
12 11 11 12 12 12 9 6 7 8 8 7 6 6 6 5 4 4 4 4 4 6 6 8 3 6 7 10 6 6 7 6 5 4 5 5 4 3 4 3 3 4 5 5 4 5 2 5 4 5 4 4 1 4 3 4 4 4 6 5 7 5 7 2 2 7 2 4 4 3 3 3 5 6 6 6 6 5 6 6 7 7 7 5 5 5 7
11 10 11 11 12 11 8 7 8 9 7 8 8 7 7 6 4 3 3 4 6 5 3 6 7 6 5 12 9 8 8 7 6 5 2 2 3 2 3 4 4 5 5 4 4 5 4 7 6 2 2 3 3 5 5 4 1 5 7 3 6 5 3 3 3 6 3 4 6 0 3 2 4 5 5 5 5 5 6 6 6 7 7 7 7 6 5
11 11 10 11 11 11 8 7 9 10 9 9 7 7 7 7 6 4 3 2 4 5 7 6 4 4 6 6 9 9 8 7 7 5 4 3 3 3 4 4 6 4 2 3 5 3 5 3 4 3 2 6 4 3 4 6 7 5 3 4 3 8 4 4 3 2 2 3 1 3 2 3 5 4 4 4 3 4 5 5 6 6 6 6 7 7 6
11 10 10 10 10 10 9 8 9 10 10 7 5 6 6 6 6 4 1 1 3 4 5 6 7 6 4 2 9 10 9 9 8 7 5 5 4 4 4 3 2 3 3 3 2 5 2 2 2 4 3 1 4 3 5 5 4 3 2 5 4 1 3 2 0 3 2 5 3 2 2 5 5 4 4 4 4 4 5 6 6 5 5 5 5 5 6
10 11 10 10 10 10 9 9 9 9 10 6 5 6 7 7 5 2 3 3 2 4 5 6 7 3 4 5 5 9 9 9 9 7 8 6 4 4 3 3 2 3 4 3 4 2 1 5 4 4 2 2 3 4 6 5 4 7 2 4 2 3 3 4 2 2 3 3 3 3 2 3 3 4 5 3 4 4 4 4 4 4 4 3 4 5 4
10 10 10 10 12 11 10 10 9 8 6 7 7 3 5 5 4 5 5 4 3 4 5 7 6 5 5 4 7 7 10 11 9 7 5 3 5 3 4 4 1 2 3 3 1 1 5 2 2 3 4 6 3 5 6 5 7 3 6 3 3 3 3 3 3 2 2 2 3 4 5 4 2 2 1 4 2 1 2 2 2 4 1 1 3 3 3
10 9 9 10 12 11 11 10 10 8 6 11 18 16 16 16 14 9 5 3 4 4 4 6 7 4 6 5 8 9 10 7 9 6 6 5 4 3 4 3 2 3 3 5 4 5 1 3 2 4 5 5 4 5 6 7 3 6 4 4 4 4 4 3 3 3 3 3 3 4 2 3 3 3 3 2 1 1 1 1 1 2 2 3 3 3 3
10 10 10 11 12 11 10 11 10 10 10 6 5 7 5 7 4 4 5 3 4 4 4 5 6 8 4 6 6 8 10 8 7 7 7 6 3 5 4 5 4 5 5 6 2 4 3 4 5 2 4 5 5 6 7 5 3 2 4 4 5 5 5 5 5 5 4 4 2 2 1 1 1 3 2 2 1 1 2 2 2 1 1 0 2 3 2
9 9 10 11 11 10 11 10 7 5 4 6 4 6 6 5 3 5 4 3 4 5 5 7 5 7 6 5 8 8 10 9 9 9 7 5 5 6 3 5 3 5 5 4 5 5 4 4 3 5 6 3 5 7 6 4 3 3 3 5 6 5 6 6 6 4 4 3 3 3 2 4 4 5 4 3 2 1 1 2 1 2 2 2 2 2 3
8 9 11 9 8 8 7 6 5 5 5 5 3 6 8 6 4 4 4 4 4 4 6 6 6 9 7 8 8 6 8 10 6 5 5 4 6 6 5 5 6 4 3 4 5 4 5 4 3 6 5 7 7 6 4 2 3 5 5 5 5 6 6 6 5 6 5 4 5 4 4 4 4 3 3 3 3 3 2 3 2 1 1 1 1 2 2
8 9 9 10 7 5 6 5 5 5 1 5 6 8 3 4 3 4 4 4 5 5 5 4 8 9 8 4 2 5 8 9 7 7 6 6 5 4 6 6 7 3 4 7 6 7 3 4 5 7 7 8 4 3 1 3 4 5 5 4 5 5 5 5 4 4 6 6 5 5 5 5 5 3 3 4 4 4 4 5 1 1 2 2 2 3 2
5 5 5 6 6 5 4 6 4 6 10 4 5 4 4 4 4 4 4 6 4 3 6 5 8 7 5 6 5 8 8 6 7 7 6 5 6 6 5 6 4 4 6 6 4 4 4 4 7 8 8 6 3 4 5 4 4 4 4 5 5 5 5 4 5 6 6 6 7 6 5 5 4 4 4 5 5 5 4 2 1 1 3 4 5 4 4
2 4 5 6 5 6 2 5 5 5 4 4 4 3 4 3 4 3 5 6 5 6 7 8 9 9 6 8 4 5 6 4 9 6 7 7 6 5 5 7 5 3 4 6 5 3 7 6 6 7 9 5 5 7 7 6 5 5 5 4 5 5 5 5 6 7 7 5 2 2 4 4 5 5 4 4 3 4 3 3 3 3 3 4 4 4 6
3 4 5 5 7 1 2 2 1 4 5 5 4 4 3 5 5 4 4 4 5 6 5 10 8 9 8 9 8 8 6 6 7 8 6 5 2 4 4 4 4 4 5 8 4 7 6 6 5 6 7 6 5 6 6 6 7 6 6 6 6 6 6 6 6 6 5 3 1 2 1 1 2 3 3 4 4 5 5 5 4 5 5 5 5 5 6
4 5 6 4 4 2 4 5 5 4 4 5 4 4 2 2 6 3 3 7 7 6 6 7 7 9 8 8 8 5 4 4 1 3 2 5 4 4 4 5 3 5 5 6 5 4 5 6 6 5 5 3 8 7 6 6 6 7 6 5 5 5 7 6 6 4 3 3 2 1 1 2 2 2 3 3 4 5 5 5 5 6 6 6 6 7 6
0 3 5 6 5 2 4 4 5 5 4 3 3 3 3 4 3 5 5 7 8 6 8 8 8 9 9 10 8 4 5 4 3 5 4 6 6 6 6 4 3 5 4 2 3 5 5 4 4 5 3 9 9 8 7 6 6 7 7 6 5 5 5 5 5 4 4 3 2 1 2 2 3 2 2 3 3 4 5 6 6 7 7 7 7 7 7
8 6 5 4 3 4 4 4 5 3 2 2 2 2 4 3 6 7 6 6 4 6 5 6 5 5 5 8 6 1 1 5 5 5 5 4 3 3 5 4 4 5 4 4 4 5 5 4 4 7 4 10 9 9 7 7 7 6 7 6 5 5 5 5 5 5 4 3 2 2 2 4 4 4 3 4 5 6 6 6 7 7 6 7 8 8 8
3 4 4 4 4 4 4 3 4 3 1 3 3 3 7 9 7 7 7 8 7 7 6 9 8 8 9 7 6 6 4 4 4 4 4 4 4 5 5 4 7 1 2 4 4 5 6 6 5 3 8 8 7 8 8 8 8 7 7 7 7 6 6 5 5 5 5 3 1 2 3 4 4 3 3 4 5 6 6 6 6 6 8 8 8 9 9
4 4 2 3 1 2 1 1 3 3 4 6 6 8 8 9 7 7 9 4 6 7 9 8 8 9 7 8 5 5 5 5 5 5 5 5 5 5 5 5 4 4 5 7 7 7 5 7 6 6 10 8 8 8 8 8 9 8 8 8 8 7 7 7 7 4 4 4 4 4 5 5 5 5 4 4 4 5 5 7 6 7 8 9 10 10 9
6 4 3 2 1 2 3 2 3 3 6 6 8 8 8 8 6 7 1 3 5 5 8 8 9 9 7 8 6 6 6 5 7 6 4 4 5 6 5 1 1 5 6 6 6 7 7 5 7 7 11 9 9 8 8 8 8 8 9 9 8 8 7 7 6 6 4 3 3 4 4 4 4 4 4 4 4 5 6 6 6 7 8 9 9 10 9
3 4 2 1 2 3 5 4 7 6 5 7 7 7 9 8 4 3 1 3 3 4 5 7 7 6 8 9 6 5 6 5 6 6 5 6 5 2 1 5 6 6 7 7 8 8 5 5 4 11 12 10 10 9 9 8 8 9 8 7 8 8 7 6 4 4 3 3 3 3 3 2 3 3 4 4 5 5 5 6 7 7 8 8 9 8 9
2 2 3 3 4 4 10 9 6 7 7 5 4 5 7 6 5 6 5 4 5 6 8 8 6 3 6 7 2 3 6 5 6 5 5 3 4 4 2 5 7 6 6 8 8 5 6 5 8 12 11 12 10 10 9 9 9 10 9 9 9 9 7 7 6 5 5 4 3 2 1 2 2 2 3 4 4 4 5 5 6 7 7 8 8 8 9
3 1 2 3 5 6 8 7 8 8 7 6 7 7 6 7 7 6 4 6 5 5 8 5 4 3 3 3 1 2 6 7 5 4 4 5 5 5 6 5 7 7 6 6 6 5 2 8 9 10 11 10 10 8 9 9 9 9 9 9 8 8 7 6 6 5 4 3 2 2 1 0 2 2 3 3 4 4 4 5 6 6 6 7 8 8 9
2 3 4 4 6 6 5 3 5 7 6 8 7 8 7 7 8 6 4 6 6 7 5 4 5 3 2 3 3 6 3 2 5 3 6 9 8 6 6 9 7 8 7 6 5 3 8 8 9 9 9 9 9 9 9 9 9 8 8 8 7 7 6 7 6 6 4 4 3 3 1 1 2 1 2 3 4 4 4 4 4 5 5 6 7 7 8
3 2 5 8 8 3 3 7 7 7 6 6 7 8 7 7 6 5 5 4 9 5 4 7 6 3 3 2 1 2 2 4 4 8 7 6 4 7 9 9 7 5 2 1 4 4 8 7 7 7 9 8 9 9 9 9 9 9 8 8 8 7 6 7 6 6 5 4 4 3 2 1 1 1 1 1 2 2 3 3 2 3 4 4 4 5 5
2 3 7 8 10 8 6 5 5 5 4 6 5 1 2 4 4 4 3 4 3 7 7 6 6 4 2 4 6 2 4 2 4 6 8 7 7 9 8 8 5 3 4 5 5 5 6 5 6 8 8 9 9 10 10 10 10 9 9 8 8 7 7 6 5 5 5 5 4 2 2 1 1 1 1 1 1 2 2 1 1 2 3 3 3 3 4
Wind_Direction
347 345 344 343 344 345 347 349 349 352 347 346 1 311 253 243 51 65 38 267 257 264 252 348 249 34 67 211 158 233 178 332 51 328 340 340 311 336 26 355 300 141 315 266 204 129 159 127 156 2 93 65 39 54 331 317 275 255 231 242 93 284 250 246 272 278 135 224 92 183 237 222 239 235 225 212 232 235 243 238 248 264 227 226 235 236 104
346 345 343 342 344 345 346 349 352 352 9 338 304 283 262 308 329 140 146 246 260 270 261 199 94 78 121 301 71 7 23 345 36 19 66 344 57 6 4 109 2 23 225 299 14 33 162 299 165 166 167 105 35 57 328 311 268 307 23 342 58 257 202 282 242 228 249 179 163 207 218 243 256 241 201 240 225 230 235 253 257 260 261 258 229 249 134
346 345 344 342 343 345 345 347 349 353 354 347 306 304 310 271 5 293 130 232 237 284 357 21 152 127 97 242 121 170 131 38 352 330 54 321 24 314 65 10 323 73 328 241 350 224 271 155 331 355 113 99 183 92 336 325 325 64 19 339 331 279 249 232 239 234 216 215 213 207 203 208 219 256 234 211 230 241 253 227 219 230 232 271 255 225 80
345 346 344 342 343 345 345 343 347 348 354 338 271 285 281 253 228 138 198 208 171 330 311 325 31 140 184 187 108 279 100 135 125 295 110 338 54 9 308 73 271 20 235 230 220 210 4 268 120 282 161 142 130 14 319 336 3 28 7 294 255 268 278 251 266 277 278 330 336 298 279 210 215 209 240 242 237 248 244 267 253 246 230 255 251 79 155
344 346 344 342 344 345 344 343 341 345 347 352 295 280 254 286 271 186 151 168 268 85 208 167 275 50 66 326 311 79 326 12 153 350 355 84 336 89 350 344 271 164 253 264 264 281 196 4 136 208 269 68 360 26 308 151 82 153 226 226 258 259 273 219 239 249 257 303 253 311 280 252 212 214 199 231 242 231 243 243 256 259 255 239 243 231 216
344 345 345 344 346 346 345 344 341 340 339 335 260 283 220 251 89 319 17 305 160 205 150 341 158 68 247 65 262 325 239 23 27 165 104 290 59 332 116 300 176 215 330 117 235 199 278 285 197 163 270 267 173 216 192 317 116 209 225 188 246 290 266 235 269 209 233 207 223 230 232 270 297 307 298 229 217 231 238 238 257 260 245 261 17 349 292
343 345 345 345 347 348 347 345 343 340 334 327 249 286 282 271 357 14 74 254 357 18 53 334 6 143 348 75 264 177 318 111 15 334 358 350 65 346 78 278 332 4 191 284 25 25 297 187 93 304 174 248 31 239 275 273 319 298 299 319 35 287 256 260 271 255 241 210 209 199 227 211 228 244 272 288 278 249 237 237 236 251 260 270 312 295 10
343 344 344 346 347 350 350 348 346 341 336 316 243 292 302 317 336 187 174 277 257 158 221 187 247 148 108 255 104 5 259 79 149 115 319 338 118 263 192 114 344 3 72 224 286 111 353 5 169 133 298 190 240 19 337 313 272 296 359 321 112 272 155 236 269 275 241 221 187 237 216 195 209 240 230 255 249 250 260 290 299 295 275 280 254 266 78
343 343 345 346 347 352 353 352 352 341 343 323 319 14 9 318 337 332 307 241 151 238 244 197 259 220 174 224 114 246 82 53 353 52 324 357 35 329 49 359 155 307 54 22 57 68 71 289 21 215 288 354 118 285 109 273 282 299 332 329 6 252 272 218 241 257 240 240 234 203 219 214 174 187 244 278 226 222 229 245 19 272 267 259 259 202 73
343 344 345 344 347 353 356 358 355 351 330 332 346 12 0 316 226 246 280 263 75 252 166 286 231 241 76 19 93 287 108 48 249 144 16 324 19 337 317 305 301 117 29 42 25 4 350 42 16 5 359 291 32 307 346 330 350 308 308 304 279 326 299 246 217 239 239 209 315 296 297 272 205 132 20 336 54 358 117 53 171 289 346 283 256 94 46
343 344 344 344 345 352 359 0 2 360 349 20 349 3 9 1 330 317 250 253 179 243 226 188 268 58 97 166 172 247 130 52 55 296 128 237 132 328 305 257 278 63 61 40 25 332 348 8 310 245 244 290 290 250 218 181 268 336 306 276 294 239 269 269 301 276 249 252 251 261 258 242 211 89 30 341 15 358 13 48 14 55 284 90 105 132 158
342 342 344 344 343 349 358 2 2 8 360 335 314 314 22 343 311 263 259 247 225 199 253 224 231 137 230 130 233 133 114 205 159 235 124 359 59 312 272 145 279 91 84 168 223 161 312 298 258 266 291 290 241 222 251 307 339 235 283 324 304 271 270 253 250 255 236 222 233 245 237 255 81 96 58 354 15 320 358 14 29 20 21 15 154 160 131
339 341 343 344 342 348 356 1 1 3 3 339 314 326 6 348 312 311 284 276 274 194 225 191 136 223 164 143 141 104 4 65 56 37 53 206 168 216 269 353 300 77 260 164 204 251 248 218 217 285 251 265 285 301 287 255 289 314 321 21 302 305 260 256 234 243 237 244 218 233 231 88 103 69 31 354 265 28 279 75 18 20 350 0 18 13 103
337 338 343 342 343 346 355 1 357 357 358 346 318 325 336 357 348 322 306 269 253 237 263 82 165 185 163 169 125 133 143 132 76 259 161 260 199 136 131 241 9 349 240 226 242 259 247 237 226 207 207 222 211 253 166 331 286 319 321 342 315 313 296 252 259 242 259 231 218 233 78 249 186 71 24 14 15 357 9 126 348 25 11 353 359 356 39
336 336 338 340 341 344 347 359 355 353 352 341 301 298 322 5 348 326 314 278 262 271 218 248 155 177 179 148 177 171 185 128 204 158 65 44 240 51 20 105 236 253 188 245 214 206 272 287 247 254 183 214 221 143 112 237 148 204 296 278 272 237 272 16 276 233 254 253 246 229 203 227 18 17 21 26 23 343 344 264 91 5 6 16 354 347 357
334 335 334 337 341 342 346 354 356 352 356 341 308 319 317 19 329 300 301 293 295 266 200 273 101 169 168 175 187 246 162 197 173 146 170 205 33 175 158 254 134 244 228 227 271 261 235 241 247 253 266 16 41 282 249 15 277 145 260 352 279 262 223 251 245 252 227 234 254 243 243 63 151 4 323 17 35 4 10 269 125 7 28 360 359 341 347
330 331 331 334 339 339 344 350 352 355 351 1 331 319 319 46 344 336 317 282 247 256 355 102 198 175 182 138 167 234 214 228 174 226 188 163 183 109 113 197 144 235 232 249 211 244 227 233 258 271 256 62 294 335 308 263 297 229 126 222 219 257 221 208 212 237 244 259 258 269 6 112 331 2 331 359 344 305 282 265 153 1 6 24 331 346 23
323 326 329 333 336 336 337 346 354 349 347 345 320 304 306 16 350 323 282 273 268 255 213 229 199 193 219 165 206 66 213 3 224 261 256 111 198 189 149 184 182 160 259 242 201 218 246 247 235 244 190 88 21 63 265 69 259 334 343 336 314 256 251 221 240 245 261 264 254 180 131 88 356 356 331 354 342 322 256 275 23 345 345 1 331 338 94
321 325 330 330 332 331 332 345 356 347 346 347 323 274 233 256 332 318 301 281 253 249 133 241 310 344 21 350 13 134 325 346 341 226 172 197 150 60 327 8 322 177 180 246 229 246 247 201 353 292 245 133 180 220 88 206 299 54 271 254 225 216 260 250 260 248 228 232 249 180 94 25 339 347 347 2 289 237 284 16 307 336 337 60 301 357 344
321 325 327 328 328 326 328 338 349 344 343 354 334 303 316 315 4 347 328 316 309 276 213 203 209 222 198 231 183 208 161 199 213 290 267 77 116 203 201 184 186 274 191 263 232 274 279 215 139 167 257 152 129 67 219 195 276 295 347 327 287 10 293 298 259 350 259 248 239 192 172 50 353 318 202 21 333 54 352 328 337 331 13 354 32 55 354
318 323 326 328 326 323 324 324 344 338 341 347 332 301 291 145 260 285 306 305 302 282 201 102 242 264 225 252 337 352 317 342 163 262 54 61 58 246 235 331 118 204 192 201 262 150 246 297 164 224 13 351 113 222 264 113 185 130 265 310 307 24 281 341 35 9 316 309 343 52 50 12 20 23 51 45 41 4 14 340 2 351 12 36 47 15 53
317 324 325 327 325 319 313 311 332 333 338 343 327 284 269 130 102 33 313 284 266 268 329 4 331 304 352 330 351 330 345 354 32 350 320 271 153 261 7 257 246 282 4 308 229 201 200 280 6 254 200 186 138 262 86 239 200 133 178 234 229 49 348 358 330 28 356 37 84 83 90 78 58 61 76 63 46 29 13 23 30 12 27 9 56 39 56
311 318 322 323 323 319 316 301 312 327 333 344 331 287 299 330 339 355 290 272 242 262 275 244 225 234 249 226 268 283 269 13 331 349 332 308 183 192 238 220 220 196 301 258 323 341 349 230 252 341 288 188 313 154 181 274 321 171 196 147 16 130 9 323 273 108 123 88 76 142 104 66 83 74 51 44 42 33 36 41 44 28 53 60 48 46 62
306 310 315 319 321 320 317 293 299 314 324 334 320 304 299 326 313 312 272 247 285 267 228 236 225 219 213 199 181 175 202 176 357 34 9 302 300 198 189 248 13 157 246 32 342 320 333 307 7 339 277 59 263 256 245 206 216 59 268 167 150 99 224 234 263 92 246 139 139 117 113 107 99 91 68 59 41 35 31 52 42 41 37 59 74 71 76
303 305 307 314 318 317 310 285 295 301 314 319 305 263 257 268 257 310 304 280 216 222 240 185 221 235 211 161 149 200 173 81 151 230 204 238 266 303 356 34 48 337 74 110 230 242 246 269 214 211 251 91 288 283 63 296 108 9 279 75 166 153 94 259 258 280 289 65 90 89 84 56 29 41 109 87 64 48 49 51 51 54 51 51 78 124 106
297 300 304 309 316 314 300 276 293 298 297 318 309 295 288 296 347 286 267 257 273 285 253 244 179 150 165 171 212 185 127 198 175 200 307 325 307 310 348 209 196 203 313 229 200 250 244 229 275 292 279 130 273 281 4 27 3 111 291 99 339 98 249 284 48 277 119 157 123 105 103 98 78 73 55 41 44 57 55 55 61 56 50 48 41 29 70
297 296 301 308 311 316 299 280 293 297 295 294 288 272 264 272 279 287 309 334 294 217 237 258 171 191 188 224 174 142 188 214 195 219 200 218 223 167 219 193 190 189 217 206 217 280 237 288 295 251 224 55 216 289 355 219 246 247 252 151 175 222 248 190 215 243 219 71 42 316 211 131 113 76 72 76 77 67 66 61 60 53 51 34 33 35 21
301 295 301 307 310 307 290 281 287 294 294 288 268 264 262 265 261 266 284 285 280 285 299 246 205 191 212 228 158 198 180 216 229 214 198 121 227 187 169 174 201 202 196 206 189 215 231 237 227 81 7 136 248 220 191 312 304 267 258 219 155 246 5 304 326 334 62 94 117 81 69 125 72 90 79 73 67 74 72 65 60 60 57 45 43 46 49
301 298 297 304 305 300 278 279 286 291 302 299 278 263 243 237 243 215 235 265 274 285 273 284 339 156 212 205 163 209 187 208 222 224 181 166 184 154 165 168 220 223 212 244 292 302 240 252 47 348 36 41 292 237 176 222 212 250 91 58 69 50 56 334 36 282 161 173 187 136 232 220 147 124 116 89 58 75 76 67 64 59 48 50 53 46 42
300 297 298 299 303 297 273 271 284 289 299 294 265 240 229 189 198 212 107 326 287 282 272 236 225 209 155 177 188 210 186 202 225 213 193 195 170 183 142 189 232 259 251 245 225 242 233 299 99 97 127 53 273 323 269 263 254 77 248 90 63 113 69 95 63 292 40 79 63 34 95 124 132 127 110 100 73 42 61 56 43 47 51 36 38 41 43
305 297 297 299 301 295 273 272 279 294 288 267 257 228 214 206 152 162 79 252 282 278 270 268 266 359 215 172 208 202 203 195 217 207 207 200 162 198 141 224 142 244 222 192 234 347 2 230 200 120 99 152 293 260 268 274 248 142 170 135 152 137 193 135 98 140 110 132 99 106 157 144 143 151 132 126 129 131 115 104 95 54 26 26 41 30 28
297 294 291 298 299 289 278 274 277 282 277 261 256 303 12 3 34 13 10 307 293 250 245 237 238 215 235 178 214 213 220 196 207 209 192 156 192 219 163 247 196 215 327 290 315 228 231 10 280 156 219 125 205 269 269 259 272 123 175 142 142 143 137 140 160 157 148 136 184 195 199 168 187 288 101 122 103 98 98 121 103 95 141 50 78 39 38
287 286 289 293 298 286 277 281 275 276 283 311 309 279 260 259 273 283 274 269 249 248 258 259 247 217 227 180 169 185 218 200 202 194 190 178 211 205 218 197 221 213 120 271 202 240 111 224 232 240 116 123 228 246 253 255 287 94 156 147 160 159 192 173 179 158 182 187 234 260 223 225 146 153 130 167 160 148 164 264 69 213 127 103 66 53 43
285 283 290 293 292 285 276 276 280 283 271 269 244 213 174 177 203 223 271 257 274 257 244 240 230 231 186 103 216 165 199 201 194 189 203 161 203 218 213 209 202 231 166 234 159 241 184 246 231 214 122 218 230 257 251 247 254 182 159 179 173 173 185 185 193 194 186 197 183 254 302 101 144 126 160 181 166 258 331 330 289 319 284 116 97 60 13
281 281 288 295 285 278 278 272 270 233 239 229 237 90 112 186 301 155 195 265 245 198 211 224 252 236 207 180 223 167 190 208 204 187 215 164 198 232 209 236 134 244 164 224 258 239 238 219 256 245 242 195 212 235 246 247 177 195 204 198 181 190 185 203 199 199 189 168 190 193 182 181 186 198 196 186 208 149 186 202 160 286 311 35 21 51 33
279 285 289 286 285 269 264 231 236 237 223 238 132 123 128 163 192 207 227 248 274 289 223 211 208 231 217 217 205 134 167 216 209 178 209 152 187 209 231 231 223 216 64 201 240 202 240 128 203 235 230 227 223 229 246 244 213 192 200 211 180 199 202 212 202 193 191 183 207 192 207 208 220 209 202 195 206 197 234 269 217 218 335 341 83 14 297
280 288 292 284 267 235 235 232 175 221 304 47 101 115 139 241 201 239 218 244 204 210 274 266 224 223 226 238 97 157 211 196 177 196 166 195 207 165 211 216 234 148 209 225 229 234 191 124 239 254 234 235 234 217 235 149 215 219 200 207 181 192 203 203 202 199 183 188 196 205 213 218 212 210 206 221 217 208 223 234 230 227 271 264 271 273 318
293 296 276 256 226 223 201 199 170 117 101 80 137 149 174 216 205 190 203 224 193 197 239 251 258 239 215 218 203 135 208 184 163 195 185 194 210 195 202 229 217 199 236 227 207 164 148 201 230 243 248 232 198 171 187 205 209 213 202 202 191 190 193 187 189 195 193 196 203 215 220 232 235 208 222 229 225 230 234 252 260 280 299 297 291 296 291
206 247 241 235 237 215 203 116 85 136 180 155 238 240 190 202 211 211 207 202 165 217 216 231 232 244 233 214 167 158 259 192 186 187 207 165 213 189 193 220 166 218 241 238 145 165 229 215 228 231 246 206 195 198 194 201 206 203 206 191 190 188 183 187 195 203 208 221 249 190 216 230 237 239 217 240 248 243 254 254 248 255 265 275 281 284 277
222 214 213 198 234 112 49 112 147 169 188 193 201 232 211 197 221 220 171 197 212 233 195 216 223 234 226 230 196 186 176 220 192 191 204 167 175 248 153 231 150 231 233 244 176 166 247 239 205 227 243 211 193 136 171 185 202 198 198 195 187 182 180 194 197 215 232 261 266 277 245 240 287 272 258 234 240 244 242 244 250 262 269 282 297 293 287
218 234 217 225 109 119 142 146 176 199 205 204 201 220 233 223 226 232 195 221 219 215 190 230 186 217 214 232 241 199 112 296 307 324 204 200 146 229 204 222 107 250 242 239 129 200 219 249 248 237 250 120 130 141 160 175 195 186 185 187 189 185 187 196 196 190 207 184 194 193 240 235 223 244 258 245 244 254 261 275 284 285 286 279 269 269 272
212 316 347 324 286 176 150 183 206 198 211 213 217 217 212 244 202 215 228 229 214 204 183 211 208 204 202 199 214 173 145 226 233 205 207 196 151 226 223 205 193 244 237 129 145 205 226 238 242 254 216 125 129 139 153 165 171 173 167 174 171 181 186 193 185 182 210 215 210 216 211 230 249 242 252 256 260 263 276 279 278 278 276 281 286 285 283
309 262 283 272 200 189 200 199 190 224 183 177 186 252 216 222 225 227 216 228 241 248 163 193 223 197 178 182 192 146 137 162 204 184 216 192 114 224 230 209 212 231 231 120 217 234 224 231 232 248 121 138 148 147 152 158 157 163 154 161 160 176 186 190 186 177 171 190 198 213 255 257 253 250 262 266 268 268 269 270 272 273 274 275 270 269 271
248 259 233 208 195 197 197 209 175 181 211 206 176 211 206 225 218 206 225 210 196 213 172 192 178 197 169 188 193 154 151 173 231 201 198 171 206 197 213 217 218 160 76 240 229 233 230 233 232 255 113 131 132 150 147 154 154 153 150 158 162 167 177 173 179 184 192 173 196 258 266 270 279 280 268 271 276 280 278 278 280 278 273 271 270 276 283
203 195 229 197 185 177 139 308 225 183 207 208 223 233 222 229 228 216 232 173 200 207 166 200 176 203 184 166 184 167 211 170 158 212 183 184 214 214 219 230 211 205 215 234 234 238 228 243 214 192 147 153 149 156 154 158 157 162 159 158 167 168 177 176 191 188 207 202 227 243 257 260 261 266 272 276 280 287 291 287 289 296 298 296 296 296 287
208 190 177 149 344 267 218 209 167 212 227 216 218 223 239 242 243 229 104 92 206 183 183 183 182 198 174 164 210 174 182 170 170 200 187 195 223 210 209 171 285 234 233 243 242 249 243 229 236 197 144 145 148 152 157 157 159 156 164 169 171 173 180 187 203 186 214 236 245 237 249 256 268 280 286 291 289 283 283 292 302 294 294 287 279 278 279
237 205 223 233 203 205 216 220 208 217 227 224 230 239 246 251 266 301 27 252 234 223 185 175 186 188 173 164 182 169 187 170 206 161 194 207 212 115 52 235 220 225 238 237 247 244 231 222 226 106 127 135 146 152 154 157 160 162 169 166 164 171 164 177 169 180 172 170 195 221 243 262 286 284 283 279 283 287 292 293 290 287 285 283 283 279 279
222 226 222 223 215 196 209 221 232 234 232 241 242 240 246 261 274 234 208 223 226 198 183 162 163 171 200 172 251 170 200 201 196 169 190 191 197 209 205 227 236 229 227 237 233 245 252 258 117 124 133 139 149 153 158 158 164 168 164 162 166 165 166 170 168 168 158 175 196 203 209 245 253 280 281 288 293 294 296 292 290 289 285 280 282 284 281
288 249 216 224 234 221 226 226 230 237 227 231 239 230 223 232 239 241 207 211 220 61 7 76 50 333 348 3 75 323 205 157 206 172 171 214 197 199 205 224 217 233 222 239 250 224 131 94 117 123 128 139 144 158 155 164 164 167 162 166 165 162 165 165 163 149 163 169 153 153 182 46 295 275 277 282 283 299 319 317 304 294 292 290 286 286 286
227 227 244 242 236 238 240 231 237 239 230 230 224 231 227 229 227 211 164 209 117 109 164 119 168 199 164 181 169 200 230 228 197 181 219 207 212 215 215 232 221 221 230 212 229 215 126 130 122 129 135 139 149 152 159 158 157 158 161 160 153 155 163 160 156 154 151 126 130 110 133 201 263 305 322 327 324 323 305 288 283 285 287 286 288 286 288
237 249 250 233 239 265 228 219 217 230 221 219 217 228 222 227 221 200 183 210 131 127 180 181 167 165 149 178 176 199 193 165 244 215 214 223 248 232 222 227 231 249 281 189 211 138 118 136 139 132 139 147 150 157 154 151 153 154 154 147 151 153 157 153 153 145 138 136 129 156 207 207 314 348 353 338 313 292 279 269 283 300 310 308 313 313 316
228 233 233 229 236 248 248 275 293 276 281 320 309 276 231 241 209 228 147 251 132 163 206 188 179 172 170 201 216 160 57 303 231 218 225 231 230 238 225 227 238 220 236 241 236 134 134 125 127 142 149 149 154 150 149 148 150 150 151 153 154 152 150 152 149 149 154 155 148 168 146 144 142 134 76 354 287 271 285 334 357 321 321 329 349 338 336